Погода в Балыктуюле

Россия / Республика Алтай     50°45′30″N   88°02′25″E
темп.,
°C
ветер,
м/с
пор.,
м/с
влажн.,
%
обл.,
%
осадки,
мм/ч
давл.,
гПа
погр.,
м
14 апреля, ср
ср1401:00−6ссз12905 0.1 1033164
04:00−7ссз128329 0.0 1034250
07:00−7ссз117554 0.0 1036373
10:00−2зсз134718 0.0 10341214
13:00+2зсз353594 0.0 10301759
16:00+3з4639100 0.0 10271778
19:00+2з485239 0.0 1027586
22:00−2сз117053 0.0 102924
15 апреля, чт
чт1501:00−3зсз118365 0.0 103022
04:00−3ссз018527 0.1 103013
07:00−3св008318 0.1 103148
10:00+3ююв015638 0.0 1027728
13:00+7ююз024546 0.0 10241281
16:00+8ююв124349 0.0 10201565
19:00+6вюв115796 0.0 102017
22:000в11782 0.0 102311
16 апреля, пт
пт1601:00−1всв11845 0.0 102410
04:00−2всв11864 0.0 102313
07:00−2всв11814 0.0 102448
10:00+6юв11490 0.0 1019521
13:00+10юз13340 0.0 10151254
16:00+12з46260 0.0 10122437
19:00+9з22420 0.0 101328
22:00+3юз11615 0.0 101513
17 апреля, сб
сб1701:00+1вюв11710 0.0 101610
04:00−1в11755 0.0 101610
07:000всв1169100 0.0 101520
10:00+6ююв1141100 0.0 1010425
13:00+11зюз41027100 0.0 10042906
16:00+9з684395 0.0 10061974
19:00+6зюз266394 0.1 1008872
22:00+3юз238368 0.1 1010144
18 апреля, вс
вс1801:000зюз1195100 0.2 101211
04:000зюз119568 0.1 101210
07:00−1ю119330 0.1 101322
10:00+6зюз265683 0.2 10081304
13:00+9з51034100 0.6 10052840
16:00+9зюз7124086 0.1 10042499
19:00+5зсз4115976 0.8 10091365
22:00+2всв118320 0.6 100810